TimePDT,TemperatureF,Dew PointF,Humidity,Sea Level PressureIn,VisibilityMPH,Wind Direction,Wind SpeedMPH,Gust SpeedMPH,PrecipitationIn,Events,Conditions,WindDirDegrees,DateUTC
12:53 AM,44.1,39.9,85,30.10,10.0,Calm,Calm,-,N/A,,Clear,0,2013-03-29 07:53:00
1:53 AM,46.9,39.9,77,30.12,10.0,Calm,Calm,-,N/A,,Partly Cloudy,0,2013-03-29 08:53:00
2:53 AM,46.0,42.1,86,30.13,10.0,Calm,Calm,-,N/A,,Mostly Cloudy,0,2013-03-29 09:53:00
3:53 AM,46.0,43.0,89,30.14,10.0,Calm,Calm,-,0.00,,Mostly Cloudy,0,2013-03-29 10:53:00
4:53 AM,45.0,42.1,90,30.15,10.0,Calm,Calm,-,N/A,,Overcast,0,2013-03-29 11:53:00
5:53 AM,46.0,42.1,86,30.16,10.0,Calm,Calm,-,N/A,,Overcast,0,2013-03-29 12:53:00
6:53 AM,46.0,42.1,86,30.18,10.0,ENE,3.5,-,N/A,,Overcast,70,2013-03-29 13:53:00
7:53 AM,48.0,44.1,86,30.19,10.0,Calm,Calm,-,0.00,Rain,Light Rain,0,2013-03-29 14:53:00
8:53 AM,51.1,44.1,77,30.20,10.0,Calm,Calm,-,0.00,,Mostly Cloudy,0,2013-03-29 15:53:00
9:53 AM,55.9,44.1,64,30.20,10.0,Calm,Calm,-,N/A,,Mostly Cloudy,0,2013-03-29 16:53:00
10:53 AM,57.0,44.1,62,30.22,10.0,Calm,Calm,-,N/A,,Overcast,0,2013-03-29 17:53:00
11:53 AM,60.1,42.1,51,30.22,10.0,Calm,Calm,-,N/A,,Overcast,0,2013-03-29 18:53:00
12:53 PM,63.0,41.0,45,30.21,10.0,Variable,3.5,-,N/A,,Mostly Cloudy,0,2013-03-29 19:53:00
1:53 PM,66.0,41.0,40,30.18,10.0,SE,3.5,-,N/A,,Scattered Clouds,130,2013-03-29 20:53:00
2:53 PM,66.0,41.0,40,30.17,10.0,Calm,Calm,-,N/A,,Partly Cloudy,0,2013-03-29 21:53:00
3:53 PM,66.9,39.9,37,30.15,10.0,SSW,3.5,-,N/A,,Clear,200,2013-03-29 22:53:00
4:53 PM,68.0,41.0,37,30.15,10.0,Calm,Calm,-,N/A,,Scattered Clouds,0,2013-03-29 23:53:00
5:53 PM,66.9,39.9,37,30.14,10.0,Calm,Calm,-,N/A,,Partly Cloudy,0,2013-03-30 00:53:00
6:53 PM,66.9,39.9,37,30.14,10.0,SSE,5.8,-,N/A,,Mostly Cloudy,150,2013-03-30 01:53:00
7:53 PM,62.1,39.0,43,30.14,10.0,South,3.5,-,N/A,,Clear,170,2013-03-30 02:53:00
8:53 PM,55.9,41.0,57,30.16,10.0,East,3.5,-,N/A,,Clear,100,2013-03-30 03:53:00
9:53 PM,52.0,41.0,66,30.18,10.0,East,4.6,-,N/A,,Clear,100,2013-03-30 04:53:00
10:53 PM,45.0,39.9,82,30.19,10.0,Calm,Calm,-,N/A,,Clear,0,2013-03-30 05:53:00
11:53 PM,46.0,39.9,79,30.19,10.0,Calm,Calm,-,N/A,,Clear,0,2013-03-30 06:53:00